Location: Marcellina
(42.0167°N, 12.8000°E)
Time: 20:42:35
(UTC+00:00)

Daily predictions for brighter satellites

Satellite Brightness Start Highest point End
(mag) Time Altitude Azimuth Time Altitude Azimuth Time Altitude Azimuth
Feng Yun 1-1 Rocket 4.3 16:07:00 10° SSE 16:12:29 57° ENE 16:17:52 10° N
Cosmos 1725 Rocket 4.2 16:08:32 10° N 16:14:54 83° W 16:21:12 10° S
USA 215 4.5 16:10:13 10° ENE 16:15:16 25° N 16:20:20 10° NW
CZ-4B R/B 4.2 16:13:58 10° NNW 16:16:13 17° WNW 16:18:31 10° WSW
Cosmos 2084 3.5 16:15:04 10° NNW 16:19:18 55° NE 16:23:26 10° SE
USA 229 DEB 3.8 16:13:19 10° SSW 16:19:42 60° ESE 16:26:23 10° NE
USA 229 3.8 16:13:26 10° SSW 16:19:48 60° ESE 16:26:28 10° NE
Cosmos 1607 4.2 16:15:52 10° NNW 16:21:52 48° NE 16:27:55 10° SE
BREEZE-M DEB (TANK) 4.1 16:12:11 10° W 16:24:25 51° NNW 16:28:02 10° NE
Cosmos 1656 4.1 16:19:45 10° S 16:24:55 41° ESE 16:30:03 10° NE
Cosmos 1825 3.3 16:21:19 10° NNW 16:24:58 49° W 16:28:38 10° S
NOSS 3-1 (A) 4.0 16:20:23 10° S 16:25:13 34° ESE 16:30:39 10° NE
NOSS 3-1 (C) 3.4 16:20:08 10° SSW 16:25:24 56° ESE 16:31:25 10° NE
COSMO-SKYMED 1 3.8 16:23:36 10° NE 16:27:01 22° E 16:30:24 10° SE
Cosmos 1633 4.0 16:25:23 10° NNE 16:28:01 19° ENE 16:30:39 10° ESE
Sich 1 3.8 16:25:42 10° NNE 16:29:32 29° ENE 16:33:21 10° SE
Envisat 3.5 16:26:01 10° SE 16:30:38 36° ENE 16:35:16 10° N
ALOS 4.5 16:28:40 10° SSW 16:32:46 31° W 16:36:55 10° NNW
TELKOM 3 3.7 16:32:00 10° NW 16:33:57 29° NNE 16:35:15 16° ENE
Cosmos 1356 Rocket 3.7 16:33:48 10° SSE 16:37:45 45° E 16:41:47 10° NNE
SeaSat 1 2.7 16:35:21 10° SE 16:40:04 48° ENE 16:44:48 10° NNW
SMAP 3.1 16:35:34 10° SSE 16:40:12 88° WSW 16:44:54 10° NNW
PSLV R/B 2.6 16:37:42 10° W 16:40:14 71° S 16:42:04 16° E
Cosmos 2219 3.2 16:38:25 10° NNW 16:44:05 89° E 16:49:42 10° SSE
Lacrosse 4 Rocket 2.0 16:43:16 10° S 16:47:01 36° ESE 16:49:57 15° NE
Cosmos 1869 3.2 16:44:58 10° S 16:48:54 79° E 16:52:51 10° N
YAOGAN 6 3.3 16:46:45 10° SE 16:49:47 28° ENE 16:52:49 10° N
Cosmos 2221 3.7 16:45:44 10° SSW 16:49:52 46° WNW 16:54:04 10° N
CSL-04 Rocket 4.3 16:47:05 10° SE 16:51:45 31° ENE 16:56:23 10° N
YAOGAN 1 3.5 16:49:28 10° SE 16:53:05 26° ENE 16:56:43 10° N
Cosmos 1980 Rocket 3.2 16:53:51 10° SSE 16:58:17 24° ESE 17:00:32 19° ENE
CORIOLIS 4.4 16:53:17 10° S 16:58:39 75° WSW 17:04:06 10° NNW
CZ-4 R/B 1.9 16:55:17 10° SE 16:59:08 38° ENE 17:02:56 10° N
Geosat 4.1 16:55:06 10° NNE 17:00:09 82° WNW 17:05:10 10° SSW
ERBS 2.1 16:57:42 10° SW 17:01:00 82° SE 17:02:51 24° NE
Cosmos 2034 Rocket 4.3 16:55:40 10° N 17:01:40 42° ENE 17:07:39 10° SE
Cosmos 1238 Rocket 4.3 16:59:01 10° NNW 17:03:03 39° W 17:06:25 10° SSW
Cosmos 2227 Rocket 2.1 16:57:58 10° NNW 17:03:41 80° ENE 17:09:19 10° SSE
Cosmos 2297 Rocket 2.1 16:58:05 10° NNW 17:03:47 86° ENE 17:09:26 10° SSE
NOSS 2-3 (C) 4.1 17:00:59 10° S 17:05:01 41° ESE 17:07:31 22° ENE
Cosmos 1680 Rocket 3.8 17:02:06 10° S 17:06:59 43° ESE 17:10:57 15° NE
Okean-O 2.8 17:04:19 10° S 17:08:44 74° WSW 17:13:11 10° NNW
FengYun 1-2 T 4.2 17:04:37 10° SSE 17:10:04 64° ENE 17:15:31 10° N
Ariane Rocket 4.2 17:14:23 23° NE 17:14:23 23° NE 17:17:41 10° NNE
SKYMED 2 3.4 17:10:59 10° NNE 17:15:21 74° ESE 17:19:41 10° S
H-2A R/B 4.5 17:12:27 10° SSW 17:16:02 35° W 17:19:35 10° NNW
Cosmos 2369 3.6 17:13:30 10° SSW 17:19:07 72° ESE 17:24:08 14° NNE
Tsikada Rocket 4.3 17:16:18 10° SSE 17:22:14 44° E 17:28:16 10° NNE
Cosmos 2263 Rocket 3.8 17:22:55 10° N 17:25:09 16° NNE 17:25:09 16° NNE
NOAA 15 4.5 17:22:47 10° SSE 17:28:03 69° ENE 17:33:19 10° N
Cosmos 2082 3.6 17:25:54 10° NNW 17:31:33 83° ENE 17:37:10 10° SSE
Cosmos 923 Rocket 4.0 17:26:22 10° SSW 17:31:35 86° WNW 17:36:20 13° NNE
Cosmos 2360 4.3 17:26:16 10° S 17:31:47 55° ESE 17:34:33 29° NE
Cosmos 1697 Rocket 2.6 17:32:02 10° SSW 17:37:42 87° WNW 17:42:03 18° NNE
Cosmos 2278 3.6 17:33:12 10° SSW 17:38:50 77° ESE 17:42:21 24° NNE
Cosmos 1624 Rocket 4.4 17:34:13 10° N 17:39:08 40° ENE 17:39:08 40° ENE
Cosmos 2056 Rocket 4.0 17:34:40 10° N 17:38:46 36° NE 17:38:46 36° NE
ATLAS 5 CENTAUR R/B 3.1 17:36:23 10° NW 17:42:14 57° WSW 17:48:49 10° SSE
Cosmos 1862 3.7 17:39:21 10° NNW 17:43:17 63° W 17:47:13 10° S
Cosmos 1464 Rocket 4.5 17:44:19 10° NNW 17:50:21 60° W 17:56:21 10° S
Cosmos 1633 Rocket 3.8 17:50:23 10° NNW 17:54:42 53° W 17:58:59 10° S
USA 215 3.6 17:56:07 40° NE 17:57:14 43° NNE 18:03:19 10° NW
COSMO-SKYMED 1 4.2 17:59:20 10° N 18:03:14 33° WNW 18:07:06 10° SW
DMSP B5D1-3 4.5 18:03:21 33° N 18:05:45 85° WNW 18:10:55 10° SSW
Cosmos 1515 Rocket 4.0 18:03:31 10° S 18:07:01 55° SSW 18:07:01 55° SSW
NOSS 2-3 (E) 4.3 18:03:46 10° SW 18:08:02 53° NW 18:08:54 46° N
Cosmos 1328 Rocket 4.5 18:04:13 10° SSW 18:08:29 47° WNW 18:11:27 19° N
NOAA 11 4.1 18:04:30 10° S 18:09:55 81° WSW 18:15:23 10° NNW
Cosmos 1151 Rocket 3.9 18:07:03 10° SSW 18:11:14 47° WNW 18:13:22 26° NNW
NOSS 3-1 (A) 4.4 18:10:38 10° WSW 18:15:55 41° NW 18:18:59 25° N
NOSS 2-3 (D) 4.5 18:13:18 10° WSW 18:17:31 47° NW 18:17:54 46° NNW
Cosmos 1932 4.4 18:15:02 10° NNW 18:21:38 88° ENE 18:22:24 72° SE
Lacrosse 4 Rocket 3.5 18:22:36 10° WSW 18:25:47 21° NW 18:26:19 21° NW
Cosmos 1371 Rocket 4.4 18:24:31 10° NNW 18:29:08 60° WNW 18:29:08 60° WNW
CZ-4 R/B 4.2 18:31:24 10° SW 18:34:16 18° W 18:37:06 10° NW
Cosmos 1980 Rocket 2.9 18:36:26 10° SW 18:41:54 49° WNW 18:42:22 48° NW
Cosmos 2263 Rocket 4.3 19:05:33 10° NNW 19:06:52 18° NNW 19:06:52 18° NNW
